Weather History for Greenville Downtown, SC

Change the Weather History Date:

Saturday, February 9, 2013

  Actual Average Record
Temperature  
Mean Temperature 50 °F -  
Max Temperature 60 °F 52 °F 70 °F (2009)
Min Temperature 39 °F 35 °F 26 °F (2011)
Degree Days  
Heating Degree Days 16    
Moisture  
Dew Point 19 °F    
Average Humidity 32    
Maximum Humidity 58    
Minimum Humidity 18    
Precipitation  
Precipitation 0.00 in - - ()
Sea Level Pressure  
Sea Level Pressure 30.24 in    
Wind  
Wind Speed 11 mph (North)    
Max Wind Speed 22 mph    
Max Gust Speed 34 mph    
Visibility 10 miles    
Events      
Averages and records for this station are not official NWS values.
T = Trace of Precipitation, MM = Missing Value Source: NWS Daily Summary

Daily Weather History Graph

Daily Weather History Graph

Search for Another Location

Airport:

Trip Planner

Search our weather history database for the weather conditions in past years. The results will help you decide how hot, cold, wet, or windy it might be!

Date:

Astronomy

Feb. 09, 2013 Rise Set
Actual Time 7:20 AM EST 6:06 PM EST
Civil Twilight 6:54 AM EST 6:32 PM EST
Nautical Twilight 6:24 AM EST 7:02 PM EST
Astronomical Twilight 5:55 AM EST 7:32 PM EST
Moon 6:32 AM EST (2/9) 5:46 PM EST (2/9)
Length of Visible Light 11h 38m
Length of Day
10h 45m
Waning Crescent, 0% of the Moon is Illuminated
Feb 9
Waning Crescent
Feb 10
New
Feb 17
First Quarter
Feb 25
Full
Mar 4
Last Quarter

Hourly Weather History & Observations

Time (EST) Temp. Windchill Dew Point Humidity Pressure Visibility Wind Dir Wind Speed Gust Speed Precip Events Conditions
12:53 AM 39.9 °F 31.1 °F 26.1 °F 58% 30.11 in 10.0 mi North 17.3 mph 26.5 mph N/A   Clear
1:53 AM 39.9 °F 30.0 °F 24.1 °F 53% 30.12 in 10.0 mi North 21.9 mph 34.5 mph N/A   Clear
2:53 AM 41.0 °F 32.2 °F 21.9 °F 47% 30.13 in 10.0 mi North 18.4 mph 28.8 mph N/A   Clear
3:53 AM 39.9 °F 31.4 °F 19.9 °F 45% 30.14 in 10.0 mi North 16.1 mph - N/A   Clear
4:53 AM 41.0 °F 33.1 °F 18.0 °F 40% 30.17 in 10.0 mi NNW 15.0 mph 26.5 mph N/A   Clear
5:53 AM 41.0 °F 33.5 °F 17.1 °F 38% 30.19 in 10.0 mi NNW 13.8 mph 24.2 mph N/A   Clear
6:53 AM 39.0 °F 31.8 °F 19.0 °F 45% 30.22 in 10.0 mi NNE 11.5 mph - N/A   Clear
7:53 AM 41.0 °F 33.5 °F 16.0 °F 36% 30.25 in 10.0 mi North 13.8 mph 20.7 mph N/A   Clear
8:53 AM 45.0 °F 39.7 °F 15.1 °F 30% 30.27 in 10.0 mi North 10.4 mph 17.3 mph N/A   Clear
9:53 AM 48.0 °F - 16.0 °F 28% 30.29 in 10.0 mi North 10.4 mph - N/A   Clear
10:53 AM 51.1 °F - 17.1 °F 26% 30.31 in 10.0 mi North 9.2 mph - N/A   Clear
11:53 AM 53.1 °F - 16.0 °F 23% 30.31 in 10.0 mi ENE 6.9 mph - N/A   Clear
12:53 PM 55.9 °F - 16.0 °F 21% 30.29 in 10.0 mi Variable 3.5 mph - N/A   Clear
1:53 PM 57.9 °F - 16.0 °F 19% 30.28 in 10.0 mi Variable 3.5 mph - N/A   Clear
2:53 PM 60.1 °F - 16.0 °F 18% 30.25 in 10.0 mi Calm Calm - N/A   Clear
3:53 PM 60.1 °F - 16.0 °F 18% 30.24 in 10.0 mi Calm Calm - N/A   Clear
4:53 PM 60.1 °F - 16.0 °F 18% 30.24 in 10.0 mi Calm Calm - N/A   Clear
5:53 PM 57.0 °F - 17.1 °F 21% 30.25 in 10.0 mi SE 4.6 mph - N/A   Clear
6:53 PM 54.0 °F - 19.9 °F 26% 30.27 in 10.0 mi Calm Calm - N/A   Clear
7:53 PM 53.1 °F - 19.9 °F 27% 30.29 in 10.0 mi Calm Calm - N/A   Clear
8:53 PM 50.0 °F - 19.9 °F 31% 30.31 in 10.0 mi Calm Calm - N/A   Clear
9:53 PM 48.9 °F - 19.9 °F 32% 30.32 in 10.0 mi Calm Calm - N/A   Clear
10:53 PM 48.0 °F - 19.9 °F 33% 30.30 in 10.0 mi Calm Calm - N/A   Clear
11:53 PM 43.0 °F 41.3 °F 24.1 °F 47% 30.33 in 10.0 mi NE 3.5 mph - N/A   Clear